GFSFLT2_prec_cloud_003.txt.gz
Cloud_Cover
100 100 100 98 100 100 75 100 100 27 94 64 100 6 19 5 5 17 17 5 5 56 15 5 1 0 0 0 0 0 0 0
100 100 100 100 100 76 61 100 100 100 28 6 5 24 100 99 93 42 46 92 6 6 0 0 0 0 0 0 0 0 0 0
100 100 100 99 100 100 100 100 97 31 73 91 99 100 100 100 100 100 67 18 5 0 2 0 0 0 0 0 0 0 0 0
100 100 100 100 100 100 47 98 100 100 99 100 100 100 100 100 28 24 27 0 0 5 0 0 0 0 0 0 0 0 0 0
100 100 100 100 100 41 99 100 100 100 100 100 100 100 100 100 16 0 0 0 0 0 0 0 0 0 0 0 0 0 0 0
100 100 79 100 98 100 100 100 100 100 100 100 100 100 36 5 5 2 0 5 5 5 0 0 0 0 0 0 0 0 0 0
100 100 98 100 100 100 100 100 100 100 100 100 100 100 88 41 5 16 91 5 35 5 5 2 0 0 0 0 0 0 0 0
82 100 100 100 100 100 100 100 100 100 100 100 100 100 100 47 100 100 73 5 6 7 5 5 4 0 0 0 0 0 0 0
100 100 100 100 100 100 100 100 100 100 100 100 100 100 100 99 100 100 30 17 94 8 45 66 34 0 0 0 0 0 0 0
100 93 100 100 100 100 100 100 100 100 100 100 100 100 100 100 98 100 100 100 69 100 57 58 4 5 5 0 0 3 4 1
100 98 92 100 100 100 100 100 100 100 100 100 100 100 100 100 100 100 100 100 100 100 48 38 5 5 1 1 2 1 1 5
70 84 87 58 100 100 70 100 100 100 100 100 100 100 100 100 100 99 72 89 90 9 25 8 1 2 0 0 0 0 0 4
72 41 82 22 19 4 58 100 99 19 17 5 3 1 4 5 44 5 5 5 1 5 5 5 7 8 5 5 0 0 0 0
59 41 9 9 64 0 0 0 0 0 0 0 0 0 2 0 0 0 0 4 6 27 7 7 5 2 2 4 2 1 1 0
3 3 63 5 1 1 0 0 0 0 0 0 0 0 0 0 0 5 5 9 19 17 5 0 0 0 0 0 0 0 5 0
16 32 34 1 4 0 0 0 0 0 0 0 0 0 0 0 5 5 5 5 1 0 0 0 0 0 0 5 0 4 0 0
44 5 38 0 0 0 0 0 0 0 0 0 0 0 3 5 5 5 5 0 0 0 0 0 9 8 86 92 60 50 5 3
0 5 5 5 5 5 4 1 2 3 5 0 2 3 0 0 0 0 0 1 3 58 8 63 31 5 80 45 7 49 96 78
0 5 5 5 5 5 5 5 5 5 4 0 0 0 0 0 2 3 5 6 79 99 100 5 53 88 5 5 5 5 3 12
5 5 5 5 5 5 5 5 5 5 2 1 2 3 5 5 5 13 10 5 21 96 19 76 5 27 40 14 11 5 93 99

GFSFLT2_prec_cloud_006.txt.gz
Cloud_Cover
100 100 100 100 100 100 100 95 100 100 60 95 100 76 100 5 5 5 78 84 50 5 18 10 5 5 0 0 0 0 0 0
100 100 99 100 93 100 100 100 100 100 100 100 100 86 74 80 80 83 5 5 5 5 46 2 3 3 4 0 0 0 0 0
100 100 100 100 100 100 100 100 100 100 100 100 63 85 48 100 100 98 14 5 5 5 3 1 4 0 0 0 0 0 0 0
100 100 100 100 100 100 100 100 100 100 100 69 100 100 100 100 46 8 5 5 12 5 1 5 0 0 0 0 0 0 0 0
100 100 79 86 100 100 100 100 100 100 100 100 100 100 51 97 100 78 29 22 5 0 1 0 0 0 0 0 0 0 0 0
100 100 100 100 100 100 100 100 100 100 100 100 90 97 100 100 98 85 5 5 5 5 2 0 0 0 0 0 0 0 0 0
100 100 100 100 100 100 100 100 100 100 99 76 83 94 100 100 100 83 90 100 12 6 66 28 1 25 90 0 0 0 0 0
100 100 100 100 99 99 95 92 100 100 100 100 100 100 100 100 100 91 63 100 65 84 89 82 98 98 72 5 3 3 4 5
100 62 72 70 44 96 100 100 100 100 100 100 82 74 99 100 100 100 95 98 98 100 100 100 100 100 44 7 5 4 4 0
68 44 98 99 100 98 100 100 100 100 100 100 100 100 100 100 100 100 100 100 100 100 100 100 79 37 5 5 5 5 5 3
75 94 90 91 97 97 100 100 100 100 100 100 86 94 99 100 100 100 100 100 98 20 4 4 5 2 5 5 46 37 5 5
52 44 98 44 25 51 97 100 99 74 60 5 12 88 100 99 10 5 16 6 0 0 2 4 5 5 1 2 5 5 5 5
62 55 17 5 11 16 12 8 3 5 5 0 0 0 0 0 0 0 0 0 0 4 5 5 5 4 5 4 1 5 78 100
7 46 21 5 5 5 5 4 0 0 0 0 0 0 0 0 0 0 0 0 5 5 5 5 5 5 12 71 90 69 8 6
60 5 5 6 73 0 0 0 0 0 2 2 0 0 0 0 0 0 0 5 5 0 3 5 5 5 34 5 2 0 0 0
5 45 17 6 0 0 0 5 3 5 5 5 5 4 0 0 0 0 0 0 0 1 5 5 2 0 2 4 5 4 5 5
77 56 10 0 5 5 5 5 5 5 5 5 5 5 5 0 0 0 0 0 1 0 0 2 5 5 5 4 5 5 6 62
7 0 0 5 5 5 5 5 5 22 5 5 5 5 1 0 0 0 0 0 1 16 5 18 20 100 75 5 24 84 97 100
1 5 5 5 5 12 43 6 22 8 5 5 2 0 0 0 0 3 13 38 69 58 75 45 61 86 92 79 95 100 100 100
4 5 5 5 5 15 100 39 5 8 58 40 0 5 5 5 42 48 8 84 76 87 100 99 97 94 79 97 100 100 100 100

GFSFLT2_prec_cloud_009.txt.gz
Cloud_Cover
100 100 100 100 100 100 100 100 100 100 100 100 100 100 98 100 77 96 100 97 88 92 75 5 15 5 5 5 5 4 5 0
100 100 100 100 100 100 100 100 100 100 100 100 100 100 100 100 100 82 98 100 100 100 5 9 5 5 9 5 5 5 1 2
100 100 100 100 100 100 100 100 100 100 100 100 100 99 100 100 100 100 100 100 99 64 91 5 5 4 2 3 5 0 0 0
100 100 100 100 100 100 100 100 100 100 100 100 100 100 100 100 100 100 100 100 42 13 5 4 2 0 1 5 2 1 0 0
100 100 100 100 100 100 100 100 100 100 100 100 100 100 100 100 100 98 66 35 22 6 18 5 3 4 5 0 0 0 0 0
100 100 100 100 100 100 100 100 100 100 100 100 100 100 100 100 100 100 83 100 10 21 29 5 6 5 3 4 0 0 4 5
98 100 100 100 100 98 100 100 100 100 100 100 100 100 100 100 100 93 100 96 98 100 80 96 67 5 31 17 29 100 100 100
98 100 68 99 99 100 100 100 100 100 100 100 100 99 92 100 81 68 94 96 78 93 84 87 89 100 99 100 100 100 100 52
90 96 100 100 100 100 100 100 100 100 100 100 100 100 97 100 100 100 100 99 96 100 100 100 100 100 100 100 47 4 5 5
100 100 100 96 39 81 100 88 98 100 100 100 100 100 98 96 99 82 26 48 54 81 88 84 87 68 81 56 91 6 5 5
100 100 89 80 100 100 88 37 10 16 16 73 41 28 25 3 0 0 0 0 0 0 0 0 2 0 5 4 4 0 5 5
49 64 72 98 25 7 23 62 74 62 68 71 10 3 0 0 0 0 0 0 0 1 0 0 1 4 5 5 0 0 0 0
16 8 49 80 47 17 36 100 64 10 5 0 0 0 0 0 0 0 0 0 0 0 5 5 5 0 2 5 5 0 0 1
80 61 83 90 89 36 5 2 0 0 0 0 0 5 2 0 0 0 0 0 0 1 5 5 5 0 0 5 5 70 11 5
93 42 8 54 64 19 0 0 0 1 2 2 3 0 2 3 0 0 0 0 4 0 5 5 5 5 5 5 5 5 5 4
5 5 5 5 4 0 0 9 22 3 5 5 5 5 5 5 4 0 0 2 2 4 5 4 5 5 5 6 12 30 22 5
6 5 5 5 0 0 0 4 5 6 5 5 5 5 5 5 0 0 0 0 4 5 5 5 5 6 22 67 17 55 55 12
5 5 5 0 0 0 3 5 12 98 64 16 5 5 4 0 0 0 0 0 5 5 81 47 94 92 100 76 9 69 73 98
5 5 0 1 3 5 5 5 97 62 100 13 5 5 2 0 0 2 1 5 6 5 22 100 95 100 100 38 78 85 84 100
5 5 5 0 0 5 5 52 93 99 9 5 5 5 5 5 4 5 5 70 49 18 14 32 94 87 47 56 98 84 100 100

GFSFLT2_prec_cloud_012.txt.gz
Cloud_Cover
100 100 100 100 100 100 100 100 100 100 100 100 100 100 100 100 96 100 100 100 100 99 86 100 100 100 73 5 5 5 5 6
100 100 100 100 100 100 100 100 100 100 100 100 100 100 100 100 100 100 100 100 100 100 100 98 100 33 53 5 5 3 0 3
100 100 100 100 100 100 100 100 100 100 100 100 100 100 100 100 100 100 100 100 100 100 100 93 22 26 91 5 5 3 3 0
100 100 100 100 100 100 100 100 100 100 100 100 100 95 96 100 100 100 100 100 100 91 99 100 39 5 5 4 5 1 0 0
100 100 100 100 100 100 100 100 100 100 100 100 100 100 100 100 100 100 100 100 86 64 10 100 71 32 23 8 5 3 0 0
100 100 100 100 100 100 100 100 100 100 100 100 100 100 100 100 100 100 100 97 100 100 100 97 52 12 36 5 57 12 1 3
100 100 100 100 100 100 100 100 100 100 100 100 100 100 100 100 100 96 76 51 67 100 100 46 5 5 4 44 19 87 38 38
100 100 100 100 100 100 100 100 100 100 100 100 100 100 100 100 71 93 100 100 100 98 100 86 86 50 33 70 100 97 96 100
92 100 100 100 100 100 100 100 100 100 100 100 100 87 90 71 88 15 30 37 39 92 22 2 0 1 0 0 3 0 0 0
57 100 100 100 100 100 100 100 90 98 98 92 60 92 58 28 14 5 5 5 2 0 0 0 0 0 0 0 0 0 0 0
100 100 100 100 100 100 98 82 90 64 100 100 100 88 43 10 5 4 0 0 0 0 0 0 0 0 0 0 0 0 0 0
100 100 100 100 98 100 99 96 100 100 95 99 87 19 6 2 0 0 0 0 0 0 0 0 0 4 0 0 0 0 0 0
6 8 81 68 80 100 100 77 66 38 44 30 4 1 0 0 0 0 0 0 0 0 0 0 0 0 0 0 0 0 0 0
24 16 18 46 83 6 5 5 6 4 0 0 0 0 0 0 0 0 0 0 0 0 0 0 0 5 0 0 0 0 0 0
49 100 5 23 5 5 5 0 0 0 0 0 0 3 4 2 0 0 0 0 0 0 0 0 5 5 2 3 2 4 5 0
52 94 25 5 5 5 1 0 0 0 0 4 4 5 5 5 4 0 0 0 0 0 0 0 2 5 5 4 5 9 5 2
100 31 5 5 5 5 0 0 0 0 4 5 5 8 41 34 5 0 0 0 0 0 2 5 5 5 5 5 6 56 8 12
11 0 5 5 5 2 0 0 0 0 5 21 90 14 5 5 5 5 5 5 5 3 5 5 5 22 8 89 92 74 87 37
0 0 4 5 5 3 5 5 5 5 5 5 56 100 42 5 5 5 5 5 5 5 5 5 5 5 5 5 17 5 5 2
0 0 5 5 18 78 48 6 5 5 9 36 94 100 73 5 5 5 5 5 8 50 5 5 42 10 15 76 53 4 48 5

GFSFLT2_prec_cloud_015.txt.gz
Cloud_Cover
100 100 100 100 100 100 100 100 100 100 100 100 100 100 100 100 100 100 100 100 89 100 100 100 100 100 55 100 94 100 100 85
100 100 100 100 100 100 100 100 100 100 100 100 100 100 100 100 100 100 100 100 100 100 100 8 100 100 100 100 99 83 99 14
100 100 100 100 100 100 100 100 100 100 100 100 100 100 100 100 100 100 99 100 100 100 20 100 100 100 100 100 97 52 87 23
100 100 100 100 100 100 100 100 100 100 100 100 100 100 100 100 100 100 100 100 91 100 100 100 100 100 94 100 50 26 5 12
100 100 100 100 100 100 100 100 100 100 100 100 100 100 100 100 100 100 100 100 100 100 75 28 100 100 100 99 54 6 21 5
100 100 100 100 100 100 100 100 100 100 100 100 100 100 100 100 100 100 100 100 100 100 100 100 100 100 99 81 76 7 7 5
100 100 100 100 100 100 100 100 100 100 100 100 100 100 100 100 100 100 100 100 100 100 100 100 100 100 26 2 0 4 3 5
100 100 100 100 100 100 100 100 100 100 100 100 100 100 100 100 100 100 100 100 100 95 100 100 32 2 0 2 5 5 0 0
100 100 100 100 100 100 100 100 100 100 100 100 100 100 100 100 100 100 100 100 100 58 11 6 3 2 0 0 0 0 0 0
92 100 100 100 100 100 100 100 100 100 100 100 100 100 100 100 100 91 53 40 29 4 0 0 0 0 0 0 0 0 0 0
37 80 100 100 100 100 100 100 100 100 100 100 100 100 100 100 100 91 14 5 5 5 5 2 0 0 0 0 0 0 0 0
10 29 100 100 100 100 100 100 96 99 94 91 100 95 100 89 70 29 5 5 4 0 0 0 0 0 0 0 0 0 0 0
100 69 85 45 36 100 100 100 100 100 100 100 100 65 5 3 5 5 1 0 0 0 0 0 0 0 0 0 0 0 0 0
92 5 12 68 62 34 32 17 18 54 25 14 7 5 4 0 0 1 0 0 0 0 0 0 0 0 0 0 0 0 0 1
26 13 26 39 92 18 6 15 5 4 1 0 0 0 2 1 4 0 0 0 0 0 0 0 0 0 1 3 0 1 2 3
5 4 70 14 83 18 6 2 0 0 0 0 0 1 5 5 5 5 2 0 0 0 0 0 0 0 4 5 5 5 5 5
100 100 100 36 0 5 5 5 2 0 0 0 0 5 5 5 5 89 63 2 0 0 0 0 1 4 5 37 46 5 5 5
100 100 100 7 3 4 5 5 5 2 0 2 5 5 5 5 7 61 2 2 1 0 0 1 5 9 59 8 4 5 5 5
100 100 86 1 0 4 5 5 5 5 4 5 5 6 5 5 5 29 5 5 4 1 0 0 1 0 3 0 5 5 5 16
58 59 0 2 5 5 32 79 100 77 56 92 71 74 20 51 46 58 1 0 0 2 0 3 0 3 5 0 7 37 100 5

GFSFLT2_prec_cloud_018.txt.gz
Cloud_Cover
100 100 100 100 100 100 100 100 100 100 100 100 100 97 100 100 100 100 100 100 100 100 100 96 97 100 100 100 88 92 64 100
100 100 100 100 100 100 100 100 100 99 100 100 96 100 100 100 100 100 100 100 100 100 100 100 100 94 55 99 100 100 100 100
100 100 100 100 100 100 100 100 100 100 100 100 100 100 100 100 96 100 100 94 100 100 84 94 100 100 100 100 100 100 97 32
100 100 100 100 100 100 100 100 100 100 100 100 100 100 100 100 100 100 100 100 100 100 100 100 100 100 100 100 100 84 38 69
100 100 100 100 100 100 100 100 100 100 100 100 100 100 100 100 100 100 86 100 99 100 100 100 100 100 100 99 100 30 59 97
100 100 100 100 100 100 100 100 100 100 100 100 100 100 100 100 100 100 100 100 100 100 100 100 98 76 90 91 89 100 90 41
100 100 100 100 100 100 100 100 100 100 100 100 100 100 100 100 100 100 100 100 100 97 100 99 100 100 100 100 100 100 55 4
100 100 100 100 100 100 100 100 100 100 100 100 100 100 100 100 98 100 100 100 100 100 100 100 100 100 84 98 55 8 4 1
100 100 100 100 100 100 100 100 100 100 100 100 100 100 100 100 100 100 100 100 100 100 100 100 100 60 8 14 4 5 0 0
100 100 100 100 100 100 100 100 100 100 100 100 100 100 100 100 100 100 100 100 100 100 100 100 63 5 5 4 4 0 0 0
100 100 100 100 100 100 100 100 100 100 100 100 100 100 100 100 100 100 100 100 100 99 93 16 4 4 4 0 0 0 0 0
100 100 100 100 100 100 100 98 100 100 100 100 100 100 100 100 94 86 68 75 54 13 5 5 3 0 0 0 0 0 0 0
2 0 1 12 40 45 74 100 82 52 88 93 72 81 85 97 62 5 5 5 18 4 0 0 0 0 0 0 0 0 0 0
53 18 5 5 5 98 92 14 5 5 13 48 62 27 6 5 5 5 5 4 1 30 13 4 0 0 0 0 0 0 0 0
38 36 18 5 5 5 17 44 32 47 29 10 5 5 3 2 0 3 0 1 5 41 0 0 0 0 0 0 5 3 4 5
0 5 78 21 3 5 5 5 5 5 5 0 0 0 4 4 5 5 5 3 5 5 2 0 0 0 2 5 5 14 7 5
0 2 4 23 53 4 1 5 3 5 5 3 0 3 5 5 5 5 5 5 0 0 0 0 0 4 3 5 5 5 3 61
96 99 100 100 100 7 3 5 5 57 100 30 12 18 67 83 68 78 27 62 55 3 2 1 0 0 3 5 4 5 4 4
5 6 98 100 100 96 3 5 18 85 99 91 10 16 76 100 97 75 97 90 32 71 29 5 1 5 5 5 5 48 5 5
0 0 97 100 100 94 78 23 66 86 83 68 80 99 95 12 100 93 49 68 6 98 10 70 9 5 31 68 74 66 24 8

GFSFLT2_prec_cloud_021.txt.gz
Cloud_Cover
100 100 100 100 100 100 97 99 100 100 100 100 100 100 100 100 100 100 87 100 100 98 46 37 20 30 52 99 4 66 27 83
100 100 100 100 100 100 100 100 100 100 100 100 100 100 100 100 100 100 99 47 100 100 77 28 55 99 84 74 61 96 100 45
100 100 100 100 100 100 100 100 100 100 100 100 100 100 100 100 100 86 100 100 100 100 100 86 100 87 100 100 100 91 81 17
100 100 100 100 100 100 100 100 100 100 100 100 100 100 100 100 100 100 100 100 100 100 98 100 100 100 100 100 100 52 100 47
100 100 100 100 100 100 100 100 100 100 100 100 100 100 100 100 100 100 100 100 79 100 100 100 100 98 98 38 79 92 57 22
100 100 100 100 100 100 100 100 100 100 100 100 100 100 100 100 100 100 100 91 100 100 100 100 100 21 94 100 100 62 20 97
100 100 100 100 100 100 100 100 100 100 100 100 100 100 100 100 100 100 100 100 100 100 100 100 100 100 100 100 100 100 100 100
100 100 100 100 100 100 100 100 100 100 100 100 100 100 100 100 100 100 100 100 100 100 100 100 100 100 100 97 98 100 30 5
81 100 100 100 100 100 100 100 100 100 100 100 100 100 100 100 100 100 100 100 100 100 100 100 100 100 100 53 82 74 66 20
100 85 99 67 98 46 97 100 75 100 100 100 100 100 100 100 100 100 100 100 100 100 100 100 100 100 34 46 78 57 4 0
100 100 92 100 100 100 100 100 100 100 100 100 100 100 100 100 100 100 100 100 100 100 97 100 96 52 30 13 2 0 0 0
100 100 100 100 100 100 100 100 100 100 100 100 100 100 100 100 100 100 100 95 36 15 49 54 24 3 0 0 0 0 0 0
100 100 100 100 100 100 100 100 100 100 100 100 100 100 39 97 98 22 5 6 36 25 2 0 0 0 0 0 0 0 0 0
100 100 100 100 100 98 97 93 88 14 20 24 5 12 29 6 5 5 5 2 0 0 0 0 0 0 0 0 0 0 0 0
38 13 7 13 5 4 5 5 5 5 24 67 36 5 5 4 1 0 0 0 4 1 2 3 12 5 0 0 0 2 1 2
92 40 14 5 5 4 5 5 5 49 86 72 81 5 5 5 5 5 5 5 12 68 92 69 17 5 34 5 5 6 9 8
35 33 3 0 8 6 6 22 5 32 97 96 43 5 5 5 5 5 5 5 52 66 71 90 27 5 9 5 5 5 5 5
1 2 2 100 100 100 69 5 11 5 75 47 5 9 83 14 5 5 5 97 99 91 33 17 60 88 94 18 76 14 87 53
11 5 19 12 24 9 100 99 60 6 5 53 8 80 88 29 5 78 72 100 98 91 13 83 99 91 100 39 13 22 5 5
100 5 99 23 35 96 100 100 100 99 100 100 100 89 51 92 94 100 100 100 97 100 82 91 91 97 100 49 66 10 5 7

GFSFLT2_prec_cloud_024.txt.gz
Cloud_Cover
100 100 100 100 100 100 92 100 100 100 100 100 100 100 100 100 100 94 24 40 38 41 28 4 5 4 1 5 0 0 93 100
94 100 100 100 100 100 100 100 100 100 100 100 100 100 100 100 100 95 100 100 100 24 100 96 5 5 3 11 42 99 100 83
100 100 100 100 100 100 100 100 100 100 100 100 100 100 100 100 100 100 100 100 100 93 96 100 37 64 100 100 96 24 5 80
100 100 100 100 100 100 100 100 100 100 100 100 100 100 100 100 100 97 100 100 99 98 100 97 100 100 100 85 100 66 94 96
100 100 100 100 100 100 100 100 100 100 100 100 100 100 100 100 100 100 100 100 99 100 99 66 100 67 88 100 87 42 8 5
100 100 100 100 100 100 100 100 100 100 100 100 100 100 100 100 100 100 100 100 100 98 100 100 100 100 17 6 96 100 7 99
100 100 100 100 100 100 100 100 100 100 100 100 100 100 100 100 100 100 100 100 100 100 90 10 28 93 13 100 98 100 100 48
100 100 100 100 100 100 100 100 100 100 100 100 100 100 100 100 100 100 100 100 100 100 100 100 98 100 100 57 87 87 91 22
100 100 100 100 100 100 100 100 100 100 100 100 100 100 100 100 100 100 100 100 71 100 100 100 100 100 100 100 95 98 21 5
100 100 100 100 100 100 100 100 100 100 100 100 100 100 100 100 100 100 100 100 100 100 100 100 99 92 100 72 19 21 2 0
100 100 100 100 100 100 100 100 100 100 100 100 100 96 100 100 100 100 100 100 100 100 100 59 62 28 8 3 0 0 0 0
100 74 96 75 18 80 100 100 100 100 100 78 96 100 100 100 100 100 76 100 86 96 72 32 7 2 0 0 0 0 0 0
87 36 100 100 100 100 100 96 33 59 100 100 76 100 89 100 100 90 35 48 5 17 11 0 0 1 0 0 5 5 2 0
100 100 96 100 100 100 97 100 100 100 100 92 88 66 30 54 15 26 22 5 6 0 5 5 5 5 72 48 1 0 0 0
100 100 100 100 100 100 100 82 55 82 42 9 40 6 5 16 72 14 3 0 2 5 60 80 94 25 27 5 19 5 5 5
100 100 100 99 61 41 23 24 49 7 5 5 5 12 40 10 5 5 5 14 5 90 97 100 95 5 22 5 48 28 5 5
49 17 78 99 21 16 93 70 5 44 49 20 96 75 60 5 7 5 59 52 41 100 100 100 93 20 69 5 82 71 5 5
18 67 93 25 7 100 100 5 10 46 12 5 82 79 94 49 5 8 91 100 100 56 95 53 74 15 5 5 16 22 5 5
5 5 29 7 87 100 100 40 45 98 100 89 46 94 97 100 91 76 100 100 95 90 100 96 23 5 44 77 5 5 5 5
72 88 56 46 97 100 100 100 97 100 100 100 100 99 100 66 99 74 99 98 17 100 100 79 51 33 14 5 5 5 5 5

GFSFLT2_prec_cloud_027.txt.gz
Cloud_Cover
100 100 100 100 100 100 100 98 100 100 98 100 100 100 100 100 6 69 37 34 49 9 5 5 2 0 0 3 4 5 0 12
100 100 100 100 100 100 100 100 100 100 100 100 100 100 98 100 32 5 23 35 5 56 5 48 2 1 5 5 4 22 100 13
100 100 100 100 100 100 100 100 100 100 100 100 100 100 100 98 72 96 44 18 5 5 5 4 61 23 100 100 67 100 99 90
100 100 100 100 100 100 100 100 100 100 100 100 100 98 99 100 98 78 48 30 21 96 11 75 100 100 100 54 100 42 3 0
100 100 100 100 100 100 100 100 100 100 100 100 100 98 100 100 94 100 100 100 100 100 100 100 100 100 100 98 100 20 5 4
100 100 100 100 100 100 100 100 100 100 100 100 100 97 100 71 100 100 100 93 100 100 100 100 100 100 55 92 24 5 5 5
100 100 100 100 100 100 100 100 100 100 100 99 60 93 92 100 100 100 99 100 100 100 100 72 84 50 85 55 5 6 7 5
100 100 100 100 100 100 100 100 100 100 100 100 100 100 100 100 100 100 100 100 99 99 90 97 98 6 46 14 88 95 92 63
100 100 100 100 100 100 100 100 100 100 100 100 100 100 100 100 100 100 100 100 100 100 100 100 6 8 76 100 78 63 6 29
100 100 100 100 100 100 100 100 100 100 100 100 100 100 100 100 100 100 100 100 100 100 5 30 94 100 100 80 47 27 7 4
100 100 100 100 100 100 100 100 100 100 100 100 100 100 100 100 100 100 100 100 74 5 48 100 86 100 90 53 12 0 0 0
100 100 100 100 100 100 100 100 100 100 100 100 100 100 100 100 100 100 100 30 3 58 86 79 26 18 19 4 0 0 0 0
100 43 74 100 100 100 100 100 100 100 100 100 45 98 78 40 10 4 4 20 25 17 50 5 5 3 5 5 5 0 0 0
100 99 100 100 100 100 100 98 100 98 87 100 100 94 100 90 66 54 5 5 5 5 5 4 5 5 75 60 5 2 4 0
71 38 34 32 12 57 100 89 100 100 100 49 38 35 56 80 27 5 5 5 5 5 51 83 86 52 42 15 6 4 0 0
100 100 100 100 100 100 100 100 100 100 86 21 25 5 17 5 5 38 5 5 5 27 46 100 97 86 80 5 5 1 1 1
100 100 100 84 54 25 17 32 64 100 72 100 100 82 79 99 63 50 6 74 81 94 100 100 100 98 5 3 0 5 5 5
49 40 39 17 13 91 100 90 100 100 91 100 95 100 85 51 80 81 82 62 70 71 33 72 94 61 3 5 5 4 5 5
11 5 67 5 96 100 100 100 100 100 100 100 100 100 85 100 100 100 80 98 100 93 70 60 75 5 5 5 5 5 5 0
8 28 98 96 74 100 94 100 100 100 100 100 98 100 100 100 100 99 98 100 100 100 88 95 33 5 5 5 5 5 4 5

GFSFLT2_prec_cloud_030.txt.gz
Cloud_Cover
100 100 100 100 100 100 100 100 100 100 100 100 100 100 100 72 82 44 24 6 97 47 96 74 5 2 0 0 0 0 0 4
100 100 100 100 100 100 100 100 100 100 100 100 98 100 94 100 88 44 7 32 99 93 50 5 5 0 0 0 3 6 8 81
100 100 100 100 100 100 100 100 100 100 100 100 100 100 100 100 100 95 64 91 81 5 5 9 10 2 25 51 90 100 100 81
100 100 100 100 100 100 100 100 100 100 100 100 100 100 100 100 100 100 85 5 31 10 31 96 58 18 98 100 96 90 10 5
100 100 100 100 100 100 100 100 100 100 100 100 100 100 100 100 100 100 95 73 99 100 84 96 78 94 25 97 5 16 86 81
100 100 100 100 100 100 100 100 100 100 100 100 100 100 100 100 100 100 100 100 100 100 100 100 100 68 55 100 82 37 37 4
100 100 100 100 100 100 100 100 100 100 100 100 100 100 100 100 100 87 100 96 100 100 100 100 96 100 100 84 90 81 5 5
100 100 100 100 100 100 100 100 100 100 100 100 100 100 100 100 100 100 100 98 61 73 100 100 98 68 8 88 70 33 5 3
100 100 100 100 100 100 100 100 100 100 100 100 100 100 100 100 100 100 97 100 100 100 100 100 100 100 100 38 71 26 0 3
100 100 100 100 100 100 100 100 100 100 100 100 100 100 100 100 100 98 100 100 100 100 100 100 100 84 61 15 6 5 2 5
100 100 100 100 100 100 100 100 100 100 100 100 100 100 100 100 94 100 100 100 100 100 100 100 92 6 7 3 3 5 1 0
100 100 100 100 100 100 100 100 100 100 100 100 100 100 100 100 100 100 100 99 99 30 17 8 2 3 4 5 4 1 0 0
100 100 91 100 100 100 100 100 100 100 100 100 100 100 100 100 100 100 100 99 5 5 5 4 0 5 5 2 0 0 2 0
100 100 100 95 100 100 100 100 100 100 100 100 100 100 100 100 98 82 5 2 5 5 7 5 5 5 5 6 47 18 2 0
70 18 16 28 87 73 74 94 100 100 100 100 100 100 100 52 6 5 5 5 5 8 15 5 34 30 96 93 64 11 1 4
97 100 88 16 5 7 68 42 62 9 95 100 67 34 19 6 6 12 54 51 95 100 77 68 97 55 5 5 5 5 5 5
100 100 100 98 100 100 100 100 100 61 64 98 72 78 89 76 48 100 100 100 92 99 67 100 44 70 54 31 5 5 0 0
6 23 64 56 39 16 93 83 89 52 48 100 100 63 96 100 100 100 82 96 91 94 100 100 100 75 95 5 5 0 3 3
5 98 100 99 72 13 26 90 97 100 100 100 100 100 100 100 100 99 100 100 100 100 100 100 100 99 99 5 5 5 5 5
5 96 100 84 14 67 95 100 45 100 100 100 100 100 100 100 100 100 100 100 100 100 100 100 99 46 28 8 30 5 9 75

GFSFLT2_prec_cloud_033.txt.gz
Cloud_Cover
100 100 100 100 100 100 100 100 99 57 98 100 100 100 100 100 100 95 58 86 8 5 5 2 5 4 1 0 0 0 0 0
100 100 100 100 100 100 100 100 100 100 100 100 100 100 100 100 100 82 89 76 66 5 5 5 3 0 5 2 5 5 25 14
100 100 100 100 100 100 100 100 100 100 100 100 100 100 100 100 100 100 100 100 31 60 24 4 5 4 5 11 15 3 51 100
100 100 100 100 100 100 100 100 100 100 100 100 100 100 100 100 100 100 100 95 60 45 5 19 16 77 94 100 100 100 100 100
100 100 100 100 100 100 100 100 100 100 100 100 100 100 100 100 100 100 100 100 100 67 97 56 78 94 100 100 100 100 100 100
100 100 100 100 100 100 100 100 100 100 100 100 100 100 100 100 100 100 100 100 100 71 100 97 100 100 99 99 100 69 75 82
100 100 100 100 100 100 100 100 100 100 100 100 100 100 100 100 100 100 96 100 100 100 100 100 82 79 100 5 60 100 5 59
100 100 100 100 100 100 100 100 100 100 100 100 100 100 100 100 100 100 100 100 100 100 100 100 98 7 5 45 98 100 7 5
100 100 100 100 100 100 100 100 100 100 100 100 100 100 100 100 100 100 100 100 100 100 100 98 100 99 97 100 36 7 8 2
100 100 100 100 100 100 100 100 100 100 100 100 100 100 100 100 100 100 100 100 100 99 95 100 88 67 73 26 82 8 2 0
100 100 100 100 100 100 100 100 100 100 100 100 100 100 100 100 100 100 100 100 100 52 77 100 98 100 40 23 37 3 4 1
100 100 100 100 100 100 100 100 100 100 100 100 100 100 100 100 100 100 100 100 100 83 73 98 100 93 42 90 6 5 1 5
100 100 100 77 100 100 100 100 100 100 100 100 100 100 100 100 100 100 100 100 100 100 36 42 100 55 5 5 4 5 5 0
96 100 100 100 100 100 100 100 100 100 100 100 100 100 100 100 100 100 82 100 100 100 88 6 6 22 36 33 8 11 6 3
98 100 100 100 100 100 100 92 100 100 100 100 100 100 100 100 97 100 100 100 74 86 56 100 100 62 41 5 5 37 29 5
100 100 100 42 8 12 13 15 77 100 100 100 100 100 96 100 100 98 7 38 100 100 100 100 69 33 41 75 96 98 100 66
65 100 100 99 98 99 100 77 86 20 18 56 69 94 100 100 78 58 86 100 100 100 100 100 100 98 99 100 89 90 100 71
92 29 5 5 5 3 16 5 25 34 65 63 100 100 100 100 100 100 99 100 98 97 100 99 99 100 100 100 100 68 48 49
5 5 5 15 5 6 5 5 7 63 90 78 88 92 97 100 100 100 100 100 100 100 100 100 100 100 100 100 81 74 98 65
5 5 8 25 85 16 15 12 100 99 86 100 100 100 100 100 100 100 100 100 100 100 100 100 100 100 100 61 100 98 84 70

GFSFLT2_prec_cloud_036.txt.gz
Cloud_Cover
100 100 100 100 100 100 100 100 98 98 100 100 100 100 100 100 77 100 87 72 99 20 21 5 5 0 0 0 0 0 0 4
100 100 100 100 100 100 100 100 100 100 100 100 100 100 100 100 100 100 88 98 92 48 59 5 5 5 2 0 5 1 33 2
100 100 100 100 100 100 100 90 100 100 100 100 100 100 100 100 100 100 100 100 100 91 97 50 5 5 4 5 5 24 39 19
100 100 100 100 100 100 100 100 100 100 100 100 100 100 100 100 100 100 100 100 100 100 67 90 5 5 51 48 7 7 37 75
100 100 100 100 100 100 100 100 100 100 100 100 100 100 100 100 100 100 100 100 100 100 91 58 67 75 100 100 99 100 100 31
100 100 100 100 100 100 100 100 100 100 100 100 100 100 100 100 100 100 100 100 100 92 69 100 100 100 100 100 100 79 60 40
100 100 100 100 100 100 100 100 100 100 100 100 100 100 100 100 100 100 100 100 100 100 100 100 100 100 100 99 82 100 100 76
100 100 100 100 100 100 100 100 100 100 100 100 100 100 100 100 100 100 100 100 100 100 100 100 77 37 89 58 94 100 100 28
100 100 100 100 100 100 100 100 100 100 100 100 100 100 100 100 100 100 100 100 100 100 100 100 100 100 100 98 98 13 5 13
100 100 100 100 100 100 100 100 100 100 100 100 100 100 100 100 100 100 100 100 100 100 100 97 100 70 99 64 100 91 19 100
78 97 100 100 100 100 100 100 100 100 100 100 100 100 100 100 100 100 100 100 100 100 100 100 89 100 100 89 46 98 84 84
48 74 100 100 100 100 100 100 100 100 100 100 100 100 100 99 100 100 100 100 100 100 65 91 100 100 30 44 31 85 70 25
100 100 100 100 100 100 100 100 100 100 100 100 100 100 100 100 100 100 100 100 97 100 100 100 100 97 99 88 81 61 66 10
95 100 100 100 100 100 97 95 96 100 100 100 100 100 100 100 100 100 100 100 100 94 74 90 86 69 59 76 5 6 39 5
99 92 100 100 100 100 100 92 92 70 90 100 100 100 100 100 100 100 100 55 96 73 79 61 85 100 100 100 80 55 36 33
78 100 100 93 12 76 91 13 5 89 21 40 59 100 100 100 90 84 98 82 99 99 97 76 92 65 100 100 99 100 100 98
100 100 76 100 100 85 100 71 81 8 70 70 5 9 6 78 96 99 100 100 100 100 100 100 100 100 96 54 100 100 100 100
54 100 100 39 15 71 96 79 83 41 63 79 44 72 69 100 81 92 99 100 100 100 100 100 100 100 100 100 100 100 100 83
100 94 100 100 99 9 7 62 47 93 78 21 5 95 100 100 100 100 100 100 100 100 100 100 100 100 100 100 100 100 100 100
5 17 76 91 39 5 5 94 29 80 100 88 68 100 100 11 94 100 100 100 100 94 100 100 100 100 100 100 100 100 100 100

GFSFLT2_prec_cloud_039.txt.gz
Cloud_Cover
100 100 100 100 100 100 100 100 100 100 100 98 81 88 91 100 100 100 100 100 100 97 100 92 5 5 5 5 7 2 0 0
100 100 100 100 100 100 100 100 100 100 100 100 100 100 100 100 100 100 100 100 100 100 100 96 6 5 5 5 0 5 4 0
100 100 100 100 100 100 100 100 100 100 100 99 100 100 100 100 100 100 100 100 100 100 100 100 48 5 71 12 1 0 7 1
100 100 100 100 100 100 100 100 100 100 65 100 100 100 100 100 100 100 100 100 100 100 100 83 56 10 46 72 4 58 12 5
100 100 100 100 100 100 100 100 100 100 97 100 100 100 100 100 100 90 100 100 100 100 100 100 85 100 85 10 99 100 87 53
100 100 100 100 100 100 100 100 92 100 100 100 100 100 100 100 100 100 100 100 100 100 100 100 100 99 100 100 100 76 71 100
100 100 100 100 100 100 100 100 100 100 100 100 100 100 100 100 100 100 100 100 100 100 100 100 100 100 100 100 97 100 66 88
100 100 97 100 100 100 100 100 100 100 100 92 100 97 100 100 100 100 100 100 100 100 100 100 100 100 100 100 100 100 100 100
100 100 100 100 100 100 100 100 100 100 100 100 100 100 100 100 100 100 100 100 100 100 100 100 100 100 100 100 100 100 100 99
100 100 100 100 100 100 100 100 100 100 100 100 100 100 100 100 100 100 100 100 100 100 100 100 100 100 100 100 100 86 92 100
100 100 100 100 100 100 100 100 100 100 100 100 100 100 100 99 91 100 100 100 100 100 100 100 100 100 100 100 100 100 27 26
100 98 100 100 100 100 100 99 86 100 100 100 100 100 100 100 100 100 100 100 100 100 100 100 100 100 100 100 100 100 100 100
77 99 100 100 100 100 100 87 56 77 100 100 100 100 100 100 97 35 97 100 100 100 100 100 100 100 100 100 100 100 33 5
94 80 67 90 42 58 92 70 71 73 99 100 100 100 100 100 100 100 100 100 100 100 100 100 100 100 100 96 21 41 73 63
100 95 39 100 98 87 75 87 56 18 10 81 100 100 100 100 100 100 100 100 100 100 76 96 90 98 55 62 44 74 59 95
11 50 64 100 100 100 100 100 100 100 84 23 60 93 94 94 76 100 100 90 100 100 100 100 100 95 100 100 99 100 100 99
100 100 100 100 100 100 100 100 9 44 100 100 100 100 95 100 100 100 74 74 42 61 99 100 100 100 100 100 100 100 100 100
78 27 24 59 43 84 80 74 41 100 97 90 89 80 57 97 100 100 100 12 24 60 96 100 100 99 100 100 100 100 100 100
95 76 72 79 100 95 100 100 45 13 83 77 50 22 100 100 98 100 100 100 92 87 80 100 100 100 100 100 100 100 100 100
72 6 5 5 5 6 32 31 64 87 68 33 72 99 100 100 98 99 100 100 100 100 100 100 100 100 100 100 100 100 100 100

GFSFLT2_prec_cloud_042.txt.gz
Cloud_Cover
93 100 100 100 100 100 100 98 95 55 26 99 70 98 100 100 93 100 100 100 98 90 100 100 100 100 97 12 5 5 5 1
100 100 100 100 100 100 100 100 100 59 100 86 97 91 56 100 96 100 100 100 100 100 100 100 100 100 83 21 36 5 4 0
100 100 100 100 100 100 100 100 100 100 100 58 100 89 77 100 99 100 100 100 100 100 100 100 100 100 100 100 90 51 5 4
100 100 100 100 100 100 100 100 100 100 100 93 87 81 86 99 100 100 90 100 100 100 100 100 100 100 64 100 58 62 85 92
100 100 100 100 100 100 100 100 100 100 100 100 99 93 99 100 73 100 100 98 100 92 92 100 100 100 91 100 100 100 100 100
100 100 100 100 100 100 100 100 100 100 95 100 89 92 98 74 80 100 100 100 100 100 100 100 100 100 100 100 100 100 100 99
100 100 100 100 100 100 100 100 94 57 44 52 100 93 89 91 100 99 94 88 100 100 100 100 100 100 100 100 100 85 100 100
100 100 100 100 100 100 100 100 100 100 60 100 100 99 75 74 99 100 96 92 91 89 100 100 100 87 100 100 100 100 100 100
100 100 100 100 100 100 100 100 100 100 100 100 100 98 92 100 57 100 100 87 100 100 100 100 100 100 100 100 100 100 100 100
100 100 100 100 100 98 100 100 100 100 100 79 100 98 86 91 100 58 69 88 95 99 100 100 100 100 100 100 100 100 100 100
100 100 100 100 100 100 100 100 100 100 100 100 100 90 79 97 80 93 100 100 95 99 98 99 100 100 100 100 100 97 70 100
100 100 100 100 100 100 100 100 100 100 74 99 99 100 100 100 98 100 100 100 100 100 100 100 100 100 100 100 100 100 100 100
100 100 100 100 100 100 100 100 94 100 100 100 100 100 80 49 100 81 100 100 100 100 100 100 100 100 100 100 100 100 100 100
100 100 100 100 100 100 100 100 100 100 100 100 100 100 100 98 91 100 100 100 100 100 100 100 100 100 100 100 100 100 95 77
100 100 100 100 100 100 100 100 100 84 92 100 100 26 97 84 100 98 100 100 100 100 100 100 100 100 100 100 100 100 86 91
100 100 100 100 100 100 100 100 100 99 91 100 94 100 100 80 83 58 89 51 28 86 100 77 87 100 98 100 100 100 100 96
100 100 100 100 98 5 13 93 9 99 10 10 100 99 100 100 100 100 100 100 100 90 100 96 60 11 83 96 100 100 93 100
100 46 15 6 16 78 10 5 5 19 87 100 100 100 78 81 100 100 98 100 99 90 81 52 34 51 88 89 100 100 100 80
26 68 15 5 15 5 11 88 89 97 100 100 100 100 100 100 100 100 100 100 100 97 100 68 99 100 63 96 100 100 100 100
33 100 100 11 2 6 9 10 62 54 83 80 61 100 100 100 100 100 100 100 100 100 100 96 100 100 100 100 100 100 100 100

GFSFLT2_prec_cloud_045.txt.gz
Cloud_Cover
100 100 100 100 100 100 100 100 100 100 100 100 100 100 99 99 83 5 5 5 33 98 100 46 14 96 100 100 81 99 25 6
100 100 100 100 100 100 100 100 100 100 100 100 100 45 64 99 64 5 5 51 16 100 100 99 100 100 100 100 100 100 94 91
100 100 100 100 100 100 100 100 100 100 100 93 99 56 65 14 14 36 26 65 67 100 100 71 60 99 100 98 97 100 100 99
100 100 100 100 100 100 100 100 100 100 100 100 98 31 11 4 7 82 36 90 23 99 100 100 15 44 95 70 100 100 98 88
100 100 100 100 100 100 100 100 100 100 100 100 67 43 92 5 26 72 51 70 68 100 99 99 44 62 18 63 78 92 97 100
100 100 100 100 100 100 100 100 100 100 100 100 99 99 37 63 84 99 89 98 69 96 99 100 96 93 99 86 47 84 100 100
100 100 100 100 100 100 100 100 100 100 100 100 100 80 96 31 46 100 76 93 100 96 98 100 100 100 100 100 100 100 100 100
100 100 100 100 100 100 100 100 100 100 100 81 100 92 97 44 94 97 98 64 49 81 98 100 100 99 100 100 100 100 100 100
100 100 100 100 100 100 100 100 100 100 100 100 94 98 88 100 97 100 70 100 98 100 90 100 100 100 100 100 96 100 100 100
100 100 100 100 100 100 100 100 100 100 100 100 100 76 100 98 100 94 97 100 100 100 100 100 100 100 100 100 93 81 100 100
100 100 100 100 100 100 100 100 100 100 100 100 100 96 73 100 96 100 100 89 100 100 100 100 100 100 100 100 100 100 100 100
100 100 100 100 100 100 100 100 100 100 100 100 100 99 100 87 90 100 100 100 100 100 100 100 100 100 100 100 100 100 100 100
100 100 100 100 100 100 100 100 100 100 100 100 100 97 74 100 100 100 96 97 100 100 96 51 100 100 100 100 100 100 100 100
100 100 100 100 100 100 100 100 100 100 100 100 100 99 93 100 100 81 81 74 100 100 100 100 100 100 100 100 100 100 100 100
100 100 100 100 100 100 100 100 100 100 100 100 100 100 100 100 100 98 100 100 100 100 100 98 100 98 100 74 100 42 27 68
100 100 100 100 100 100 100 100 100 100 100 100 100 100 100 100 100 100 100 40 46 99 92 66 99 100 100 99 52 100 8 94
92 100 100 100 100 100 100 100 100 100 86 100 100 95 91 100 100 100 92 11 67 77 62 96 99 91 87 63 100 82 79 100
94 82 100 100 100 100 100 100 100 100 100 93 100 100 98 33 84 52 7 33 100 95 97 100 100 100 77 100 73 39 100 92
94 100 100 100 100 100 100 100 100 100 100 100 100 100 59 58 60 94 100 85 71 94 100 100 100 93 43 60 100 99 94 100
23 100 100 100 100 84 94 100 100 100 100 100 100 99 100 90 100 95 100 100 100 100 100 100 100 100 94 96 97 100 100 100

GFSFLT2_prec_cloud_048.txt.gz
Cloud_Cover
100 80 89 100 100 100 100 100 100 100 100 100 100 100 100 100 48 20 5 100 88 9 70 45 55 13 5 92 78 62 100 100
100 99 100 100 100 100 100 100 100 100 100 100 100 100 100 100 30 40 83 100 77 67 99 100 75 23 40 100 98 89 69 100
100 100 100 100 100 100 100 100 100 100 91 100 100 91 79 100 62 92 99 100 96 35 98 100 100 94 32 100 100 100 99 94
100 100 100 100 100 100 100 100 100 100 100 100 100 99 100 100 97 5 60 100 100 98 100 70 100 99 73 100 100 100 100 100
100 100 100 100 100 100 100 100 100 100 100 100 100 96 100 100 44 53 27 100 100 77 62 55 100 100 100 100 84 74 100 100
100 100 100 100 100 100 100 100 100 100 100 100 100 100 100 92 98 61 42 100 100 100 18 66 100 100 100 100 100 100 100 100
100 100 100 100 100 100 100 100 100 100 100 100 100 100 100 100 91 98 57 99 99 100 67 64 100 100 88 92 96 88 95 98
100 100 100 100 100 100 100 100 100 100 100 100 100 100 93 96 100 93 99 96 98 100 100 100 100 100 100 100 100 98 100 94
100 100 100 100 100 100 100 100 100 100 100 100 100 100 100 87 100 92 100 97 66 96 100 100 100 100 100 100 100 99 100 85
100 100 100 100 100 100 100 100 100 100 100 96 100 100 95 100 100 100 100 97 96 97 100 100 100 100 100 100 100 96 100 100
100 100 100 100 100 100 100 100 100 100 100 100 100 100 100 100 100 100 100 100 100 100 100 100 100 98 100 100 100 100 100 85
100 100 100 100 100 100 100 100 100 100 98 99 100 100 100 100 98 100 100 99 100 96 86 100 99 100 100 100 100 100 100 100
100 100 100 100 100 100 100 100 100 100 100 100 99 100 100 100 100 100 68 56 88 72 99 100 100 97 100 100 100 100 100 100
100 100 100 100 100 100 100 100 100 100 100 100 100 100 100 100 96 100 100 100 92 64 100 88 100 100 100 100 100 99 98 98
100 100 100 100 100 100 100 100 100 100 100 100 100 100 100 100 100 100 100 100 93 100 79 100 90 100 100 77 55 88 54 100
100 100 100 100 100 100 100 100 100 100 100 100 100 100 100 100 100 100 100 90 100 71 98 96 100 70 39 46 90 50 66 18
84 100 100 100 100 100 100 100 100 100 100 100 100 100 100 100 100 100 84 98 100 98 99 100 90 85 17 68 100 100 100 100
51 35 34 100 100 100 100 100 100 100 100 100 100 100 100 100 100 100 100 86 100 79 100 71 94 24 65 100 100 100 100 100
66 40 20 31 100 100 100 100 100 100 100 100 100 100 100 100 100 100 100 100 100 100 100 96 98 82 100 100 100 100 100 100
18 31 18 97 28 73 100 100 100 100 100 100 100 100 100 100 100 100 100 54 93 91 88 100 100 100 100 100 100 100 100 100

GFSFLT2_prec_cloud_051.txt.gz
Cloud_Cover
100 100 100 100 100 100 100 100 70 100 100 100 100 100 100 100 100 100 100 94 93 54 14 27 85 68 52 100 82 100 100 100
100 100 100 100 100 100 100 39 89 100 100 100 100 100 100 100 100 100 100 54 59 79 100 99 100 99 100 100 100 76 100 100
99 100 100 100 100 100 100 98 100 100 100 100 100 100 100 100 100 100 100 9 95 99 32 99 98 34 74 100 100 73 99 100
100 100 100 100 100 100 100 100 100 100 100 100 100 100 100 100 100 100 100 99 99 95 45 100 98 48 76 99 91 99 100 100
100 100 100 100 100 100 100 100 100 100 100 100 100 100 100 79 99 84 81 25 96 80 32 96 97 98 92 81 35 76 100 95
100 100 100 100 100 100 100 100 100 100 100 100 100 100 100 80 99 96 76 70 86 80 99 82 100 71 24 69 100 80 87 80
100 100 100 100 100 100 100 100 100 100 98 100 100 100 100 100 75 70 92 95 95 97 92 34 100 91 86 78 94 98 64 94
100 100 100 100 100 100 100 100 100 100 100 100 100 100 100 100 100 100 100 83 86 61 69 100 100 98 91 100 93 91 100 100
100 100 100 100 100 100 100 100 100 100 100 100 100 100 100 100 100 100 84 97 96 89 67 85 88 72 68 100 84 100 98 86
100 100 100 100 100 100 100 100 100 100 100 99 100 100 100 100 100 100 100 93 63 86 87 67 38 12 55 86 100 100 78 94
100 100 100 100 100 100 100 100 100 100 100 100 100 100 100 100 98 69 98 86 93 80 100 92 86 88 96 100 100 83 98 100
100 100 100 100 100 100 100 100 100 100 100 100 100 100 100 88 66 90 99 83 96 94 100 81 93 98 100 100 100 100 74 100
100 100 100 100 100 100 100 100 100 100 100 100 100 100 100 100 100 100 95 100 94 94 94 99 90 100 100 99 95 88 72 100
100 100 100 100 100 100 100 100 100 100 100 100 100 100 100 100 90 100 87 96 80 100 99 64 74 77 63 71 99 100 100 100
100 100 100 100 100 100 100 100 100 100 100 100 100 100 100 100 100 100 92 100 94 98 98 71 74 98 87 91 79 84 30 53
100 100 100 100 100 100 100 100 100 100 100 100 100 100 100 100 100 100 100 100 100 100 100 100 87 49 100 95 100 76 90 81
92 100 100 100 100 100 100 100 100 100 100 100 100 100 100 100 100 100 100 100 100 100 100 100 100 98 99 50 78 36 99 59
96 96 100 100 100 100 100 100 100 100 100 100 100 100 100 100 100 100 100 100 100 100 100 100 76 64 27 90 5 30 99 91
100 98 43 67 91 100 100 100 100 100 100 100 100 100 100 100 100 100 100 100 100 100 100 100 57 88 47 36 30 21 98 100
100 98 60 26 30 26 97 100 100 100 100 100 100 100 100 100 100 100 100 100 100 100 100 58 49 38 47 44 76 61 100 100

GFSFLT2_prec_cloud_054.txt.gz
Cloud_Cover
100 100 100 96 100 97 100 39 69 54 100 100 100 100 100 98 100 100 100 100 100 100 88 100 54 65 42 6 45 48 46 14
100 100 100 100 100 100 100 100 91 17 83 100 100 100 100 100 100 100 100 100 100 100 100 25 86 98 76 20 8 58 96 68
100 100 100 100 100 100 100 100 100 93 99 100 100 100 100 100 100 100 100 100 99 100 46 5 18 6 55 5 30 77 99 99
100 100 100 100 90 100 100 99 100 88 100 100 100 100 100 100 100 100 100 100 100 100 100 12 95 29 5 22 95 100 99 100
100 100 100 100 100 100 100 100 100 100 100 100 100 100 100 100 100 100 100 100 100 73 30 95 8 43 95 78 73 100 100 100
100 100 100 100 100 100 100 100 100 100 100 100 100 100 100 100 100 100 100 100 23 5 31 45 64 97 100 100 100 100 11 71
100 100 100 100 100 100 100 100 100 100 100 100 100 100 100 100 100 100 100 60 75 53 75 51 72 66 100 100 100 100 95 71
100 100 100 100 100 100 100 100 100 100 100 100 100 100 100 100 100 100 63 49 58 76 42 35 23 77 100 98 84 90 98 92
100 100 100 100 100 100 100 100 100 100 100 100 100 100 100 100 100 100 46 7 73 65 92 98 92 100 100 100 91 85 94 83
100 100 100 100 100 100 100 100 100 100 100 100 100 100 100 100 100 100 95 100 31 84 100 100 98 94 30 64 97 100 99 93
100 100 100 100 100 100 100 100 100 100 100 100 100 100 100 100 100 100 94 94 89 76 54 54 75 29 75 53 73 96 99 85
100 100 100 100 100 100 100 100 100 100 100 100 100 100 100 100 100 100 100 100 95 70 86 32 5 50 100 66 78 100 73 97
100 100 100 100 100 100 100 100 100 100 100 100 100 100 100 100 100 100 100 98 100 91 100 70 29 42 93 95 69 73 100 90
100 100 100 100 100 100 100 100 100 100 100 100 100 100 100 100 100 100 90 89 100 92 92 41 72 97 47 100 58 92 50 99
100 100 100 100 100 100 100 100 100 100 100 100 100 100 100 100 97 98 96 61 88 100 92 100 80 96 100 76 74 65 78 100
96 100 100 100 100 100 100 100 100 100 100 100 100 100 100 100 100 100 100 100 100 100 96 100 100 100 100 100 98 61 64 68
100 97 100 100 100 100 100 100 100 100 100 100 100 100 100 100 100 100 100 100 100 100 100 100 100 100 100 100 100 100 100 96
84 100 100 100 100 100 100 100 100 100 100 100 100 100 100 100 100 100 100 100 100 100 100 100 100 100 100 100 100 100 89 100
2 75 100 100 100 100 100 100 100 100 100 100 100 100 100 100 100 100 100 100 100 100 100 100 100 100 100 100 100 100 88 98
0 0 4 93 100 100 100 100 100 100 100 100 100 100 100 100 100 100 100 100 100 100 100 100 100 100 100 100 100 100 41 96

GFSFLT2_prec_cloud_057.txt.gz
Cloud_Cover
100 100 100 93 63 100 100 100 100 100 100 100 100 100 100 100 100 100 100 100 100 100 100 100 100 100 100 100 10 4 5 5
100 100 100 90 100 100 100 100 100 100 100 100 100 100 100 89 81 98 100 100 100 100 100 100 100 100 100 95 96 98 79 10
100 100 99 97 94 100 100 100 100 100 100 100 100 100 98 100 81 87 100 100 100 100 100 100 100 100 79 99 97 12 42 39
100 100 94 66 100 100 100 100 100 100 92 100 100 100 100 100 100 100 100 100 100 100 100 93 22 29 61 64 7 42 64 65
100 100 100 90 42 100 100 100 100 100 100 96 100 100 100 100 100 100 100 100 100 100 100 100 100 100 41 19 12 27 22 94
100 100 100 100 7 100 100 100 100 100 100 100 100 100 100 100 100 100 100 100 100 100 100 99 100 100 64 22 67 82 33 100
100 100 100 100 86 70 100 100 100 100 100 100 100 100 100 100 100 100 100 100 100 100 100 100 100 66 12 62 82 91 95 100
100 100 100 99 93 98 100 100 100 100 100 100 100 100 100 100 100 100 100 100 100 100 100 100 60 79 16 48 48 92 100 99
100 100 100 100 100 100 100 100 100 100 100 100 100 100 100 100 100 100 100 100 100 100 100 56 94 20 76 100 100 100 100 100
100 100 100 100 100 100 100 100 100 100 100 100 100 100 100 100 100 100 100 100 100 100 98 11 9 92 100 100 96 86 96 84
100 100 100 100 100 100 100 100 100 100 100 100 100 100 100 100 100 100 100 100 100 100 76 13 38 92 49 100 100 36 49 82
100 100 100 100 100 100 100 100 100 100 100 100 100 100 100 100 100 100 100 100 98 93 77 70 92 100 86 38 43 47 66 23
100 100 100 100 100 100 100 100 100 100 100 100 100 100 100 100 100 100 100 100 100 99 100 98 59 100 95 80 96 62 95 66
100 100 100 100 100 100 100 100 100 100 100 100 100 100 100 100 100 100 100 100 100 89 76 100 100 86 98 100 51 63 78 83
100 100 100 100 100 100 100 100 100 100 100 100 100 100 100 100 100 100 100 100 100 99 100 100 100 100 100 33 64 62 97 100
99 100 100 100 100 100 100 100 100 100 100 100 100 100 100 100 100 100 100 100 100 100 100 99 100 72 88 100 100 100 100 100
81 100 100 100 100 100 100 100 100 100 100 100 100 100 100 100 100 100 100 100 100 100 100 97 100 100 100 100 100 100 100 100
81 85 100 100 100 100 100 100 100 100 100 100 100 100 100 100 99 100 100 100 100 100 100 100 100 100 100 100 100 100 100 100
7 98 90 100 100 100 100 100 100 100 100 100 100 100 100 100 100 100 100 100 100 100 100 100 100 100 100 100 100 100 100 100
0 1 38 100 100 100 100 100 100 100 100 100 100 100 100 100 100 100 100 100 100 100 100 100 100 100 100 100 100 100 100 100

GFSFLT2_prec_cloud_060.txt.gz
Cloud_Cover
55 34 100 97 92 96 100 100 100 100 100 100 100 100 100 78 100 87 100 100 73 100 100 100 100 100 100 100 100 100 100 53
19 78 100 100 84 100 100 100 100 100 100 100 100 100 100 100 100 100 100 100 94 97 93 100 100 100 100 100 100 100 13 16
90 100 100 99 100 100 100 100 100 100 100 100 100 100 100 100 100 100 100 100 100 100 100 100 100 100 100 99 91 58 32 38
100 76 99 100 100 100 100 100 100 100 100 100 100 100 100 99 100 94 100 100 100 100 100 100 100 100 100 100 100 100 34 5
100 74 93 100 100 100 100 100 100 100 100 100 100 100 100 100 100 100 93 100 100 100 100 100 100 100 100 100 100 45 5 8
100 99 99 96 100 100 100 100 100 100 100 100 100 100 100 100 100 100 100 100 100 100 100 100 100 100 100 96 100 68 6 5
100 98 99 79 100 100 100 100 100 100 100 100 100 100 100 100 100 100 100 100 100 100 100 100 100 100 100 92 96 76 70 37
92 100 100 100 84 100 100 100 100 100 100 89 100 100 100 100 100 100 100 100 100 100 100 100 100 100 100 100 100 100 100 100
100 100 100 100 87 98 100 100 100 100 100 100 100 100 100 100 100 100 100 100 100 100 100 100 100 100 82 74 6 16 100 100
100 74 100 88 100 99 100 100 98 99 100 100 100 100 100 100 100 100 100 100 100 100 100 100 100 100 100 66 94 82 100 100
72 98 100 94 100 100 100 100 100 100 100 100 100 100 100 100 100 100 100 100 100 100 100 100 100 100 100 100 100 100 100 100
100 88 100 100 100 100 100 100 100 100 100 100 100 100 100 100 100 100 100 100 100 100 100 100 100 100 100 100 100 100 16 75
100 100 100 100 100 100 100 100 100 100 100 100 100 100 100 100 100 100 100 100 100 100 100 100 100 100 100 100 100 65 94 68
100 100 100 100 100 100 100 100 100 100 100 100 100 100 100 100 100 100 100 100 100 100 100 100 100 100 100 100 86 71 97 86
100 100 100 100 77 100 100 100 100 100 100 100 100 100 100 94 100 100 100 100 100 100 100 100 100 100 100 94 75 100 37 16
100 100 100 100 99 100 92 100 99 100 100 100 100 100 100 99 100 100 100 100 100 100 100 98 100 100 100 100 99 39 65 100
100 100 100 100 100 100 100 100 98 86 100 100 100 100 100 100 100 100 100 100 100 100 94 100 100 100 100 99 61 67 26 100
50 100 100 100 100 100 99 100 100 100 100 100 100 100 100 100 100 100 100 100 100 100 100 100 100 100 100 97 100 100 100 100
8 100 100 100 100 100 100 100 100 100 100 100 100 100 100 100 100 100 100 100 100 100 100 100 100 100 100 100 100 100 100 100
0 91 100 100 100 100 100 100 100 100 100 100 100 100 100 99 100 100 99 100 100 100 100 100 100 100 100 100 100 100 100 100